TimeCST,TemperatureF,Dew PointF,Humidity,Sea Level PressureIn,VisibilityMPH,Wind Direction,Wind SpeedMPH,Gust SpeedMPH,PrecipitationIn,Events,Conditions,WindDirDegrees,DateUTC
12:52 AM,39.9,30.0,68,30.30,10.0,SSW,5.8,-,N/A,,Clear,210,2012-11-28 06:52:00
1:52 AM,39.0,30.0,70,30.29,10.0,SSW,6.9,-,N/A,,Clear,200,2012-11-28 07:52:00
2:52 AM,39.0,30.0,70,30.29,10.0,SSW,9.2,-,N/A,,Clear,200,2012-11-28 08:52:00
3:52 AM,39.9,30.0,68,30.29,10.0,Calm,Calm,-,N/A,,Clear,0,2012-11-28 09:52:00
4:52 AM,41.0,30.9,67,30.29,10.0,ESE,5.8,-,N/A,,Clear,120,2012-11-28 10:52:00
5:52 AM,39.0,30.9,73,30.31,10.0,SE,6.9,-,N/A,,Clear,130,2012-11-28 11:52:00
6:52 AM,39.0,32.0,76,30.32,10.0,SE,10.4,-,N/A,,Clear,130,2012-11-28 12:52:00
7:52 AM,41.0,32.0,70,30.34,10.0,SSE,12.7,-,N/A,,Clear,150,2012-11-28 13:52:00
8:52 AM,45.0,33.1,63,30.34,10.0,SSE,11.5,-,N/A,,Clear,150,2012-11-28 14:52:00
9:52 AM,53.1,36.0,52,30.35,10.0,South,8.1,-,N/A,,Clear,180,2012-11-28 15:52:00
10:52 AM,59.0,37.0,44,30.33,10.0,South,10.4,-,N/A,,Clear,170,2012-11-28 16:52:00
11:52 AM,64.0,37.9,38,30.30,10.0,SSW,12.7,-,N/A,,Clear,200,2012-11-28 17:52:00
12:52 PM,66.9,39.9,37,30.26,10.0,South,12.7,-,N/A,,Clear,180,2012-11-28 18:52:00
1:52 PM,69.1,42.1,38,30.22,10.0,South,13.8,-,N/A,,Clear,190,2012-11-28 19:52:00
2:52 PM,70.0,43.0,38,30.19,10.0,South,16.1,21.9,N/A,,Clear,190,2012-11-28 20:52:00
3:52 PM,71.1,42.1,35,30.18,10.0,South,13.8,-,N/A,,Clear,190,2012-11-28 21:52:00
4:52 PM,69.1,41.0,36,30.19,10.0,South,10.4,-,N/A,,Clear,190,2012-11-28 22:52:00
5:52 PM,62.1,41.0,46,30.20,10.0,SE,6.9,-,N/A,,Clear,130,2012-11-28 23:52:00
6:52 PM,61.0,42.1,50,30.20,10.0,SSE,13.8,-,N/A,,Clear,150,2012-11-29 00:52:00
7:52 PM,60.1,41.0,49,30.20,10.0,SSE,13.8,-,N/A,,Clear,150,2012-11-29 01:52:00
8:52 PM,57.0,41.0,55,30.20,10.0,SSE,13.8,-,N/A,,Clear,160,2012-11-29 02:52:00
9:52 PM,55.9,41.0,57,30.19,10.0,SSE,13.8,-,N/A,,Clear,160,2012-11-29 03:52:00
10:52 PM,54.0,41.0,62,30.18,10.0,South,11.5,-,N/A,,Clear,170,2012-11-29 04:52:00
11:52 PM,52.0,41.0,66,30.18,10.0,SSE,11.5,-,N/A,,Clear,160,2012-11-29 05:52:00